sat.trackr.live / text

‹ back to catalog

STARLINK-31198

NORAD 58867 · 2024-019Q

PAYLOAD ACTIVE UNKNOWN

§ Identity

Operator
Country
US
Launch date
2024-01-29
Launch site
AFETR
Launch vehicle
Mass (kg)
RCS (m²)

Purposes: comms

External: N2YO · Heavens-Above · Gunter

§ Orbital elements

Epoch: 2026-09-20T06:34:09.719040Z

Period
94.27 min
Inclination
42.9997°
Eccentricity
0.0001045
Mean motion
15.27569834 rev/d
Perigee alt
482.4 km
Apogee alt
483.8 km
Semi-major
6,861.2 km
B*
-8.6965e-5
RAAN
229.8123°
Arg perigee
275.6757°
Mean anomaly
84.3976°
Rev number
14,882

§ Raw data

STARLINK-311981 58867U 24019Q   26263.27372360 -.00002653  00000+0 -86965-4 0  99942 58867  42.9997 229.8123 0001045 275.6757  84.3976 15.27569834148822

JSON: /api/v1/satellites/58867 · /tle

For live sub-satellite position, see the globe view (requires WebGL).

§ Visibility from observer

Set your observer location to see the next 7 days of passes ≥ 10°. The values pass through the URL so the page stays shareable.

No JS? Fill the form by hand. The geolocation button needs JavaScript.